Hourly Data Report for October 03, 2013

All times are specified in Local Standard Time (LST). Add 1 hour to adjust for Daylight Saving Time where and when it is observed.

TORONTO INTL A
ONTARIO

43°40'36.000" N
79°37'50.000" W
173.40 m
6158731
71624
YYZ

Download Data

Hourly Data (October 2013)
Hourly Data Report for October 3, 2013
Temp Definition
°C
Dew Point Temp Definition
°C
Rel Hum Definition
%
Wind Dir Definition
10's deg

Wind Spd Definition
km/h
Visibility Definition
km
Stn Press Definition
kPa
Hmdx Definition


Wind Chill Definition


Weather Definition


TIME
00:00 Legend Double Dagger 12.4 4.9 60 31 12 24.1 99.83     LegendNANA
01:00 Legend Double Dagger 13.4 4.9 56 33 17 24.1 99.84     Clear
02:00 Legend Double Dagger 11.7 4.9 63 6 1 24.1 99.83     LegendNANA
03:00 Legend Double Dagger 11.5 5.0 64 32 4 24.1 99.84     LegendNANA
04:00 Legend Double Dagger 10.6 5.0 68 2 9 24.1 99.86     Mainly Clear
05:00 Legend Double Dagger 10.5 4.5 66 36 4 24.1 99.86     LegendNANA
06:00 Legend Double Dagger 10.6 4.8 67 32 8 24.1 99.91     LegendNANA
07:00 Legend Double Dagger 10.7 5.3 69 23 3 24.1 99.93     Mainly Clear
08:00 Legend Double Dagger 13.0 5.9 62 2 5 24.1 99.96     LegendNANA
09:00 Legend Double Dagger 16.0 6.8 54 1 5 24.1 99.94     LegendNANA
10:00 Legend Double Dagger 18.4 7.6 49 9 8 24.1 99.92     Mostly Cloudy
11:00 Legend Double Dagger 18.6 6.9 46 14 11 24.1 99.88     LegendNANA
12:00 Legend Double Dagger 19.7 6.2 41 14 12 24.1 99.80     LegendNANA
13:00 Legend Double Dagger 19.7 7.2 44 14 8 24.1 99.76     Mostly Cloudy
14:00 Legend Double Dagger 20.7 2.7 30 11 13 24.1 99.67     LegendNANA
15:00 Legend Double Dagger 20.9 3.8 32 17 12 24.1 99.61     LegendNANA
16:00 Legend Double Dagger 20.3 4.9 36 16 12 24.1 99.60     Mainly Clear
17:00 Legend Double Dagger 19.7 5.1 38 12 9 24.1 99.58     LegendNANA
18:00 Legend Double Dagger 18.8 5.1 40 12 8 24.1 99.62     LegendNANA
19:00 Legend Double Dagger 18.4 5.0 41 10 9 24.1 99.59     Mostly Cloudy
20:00 Legend Double Dagger 18.4 5.0 41 2 4 24.1 99.59     LegendNANA
21:00 Legend Double Dagger 18.2 6.5 46 12 9 24.1 99.59     LegendNANA
22:00 Legend Double Dagger 17.7 11.1 65 11 13 24.1 99.62     Mostly Cloudy
23:00 Legend Double Dagger 17.8 11.0 64 6 9 24.1 99.58     LegendNANA

Notes on Data Quality.

Legend

  • E = Estimated
  • M = Missing
  • NA = Not Available
  • ‡ = Partner data that is not subject to review by the National Climate Archives
Date modified: